Weather History for North Wilkesboro, NC

Change the Weather History Date:

Wednesday, February 13, 2013

  Actual Average Record
Temperature  
Mean Temperature 40 °F -  
Max Temperature 44 °F 51 °F 71 °F (1961)
Min Temperature 37 °F 22 °F 9 °F (1973)
Degree Days  
Heating Degree Days 24    
Moisture  
Dew Point 38 °F    
Average Humidity 92    
Maximum Humidity 100    
Minimum Humidity 75    
Precipitation  
Precipitation 0.20 in - - ()
Sea Level Pressure  
Sea Level Pressure 29.82 in    
Wind  
Wind Speed 2 mph (West)    
Max Wind Speed 10 mph    
Max Gust Speed 20 mph    
Visibility 7 miles    
Events Rain    
Averages and records for this station are not official NWS values.
T = Trace of Precipitation, MM = Missing Value Source: NWS Daily Summary

Daily Weather History Graph

Daily Weather History Graph

Search for Another Location

Airport:

Trip Planner

Search our weather history database for the weather conditions in past years. The results will help you decide how hot, cold, wet, or windy it might be!

Date:

Astronomy

Feb. 13, 2013 Rise Set
Actual Time 7:13 AM EST 6:03 PM EST
Civil Twilight 6:47 AM EST 6:30 PM EST
Nautical Twilight 6:17 AM EST 7:00 PM EST
Astronomical Twilight 5:47 AM EST 7:30 PM EST
Moon 8:50 AM EST (2/13) 9:55 PM EST (2/13)
Length of Visible Light 11h 42m
Length of Day
10h 49m
Waxing Crescent, 13% of the Moon is Illuminated
Feb 13
Waxing Crescent
Feb 17
First Quarter
Feb 25
Full
Mar 4
Last Quarter
Mar 11
New

Hourly Weather History & Observations

Time (EST) Temp. Windchill Dew Point Humidity Pressure Visibility Wind Dir Wind Speed Gust Speed Precip Events Conditions
12:15 AM 41.0 °F - 39.2 °F 93% 29.98 in 10.0 mi Calm Calm - N/A   Overcast
12:35 AM 41.0 °F 38.0 °F 37.4 °F 87% 29.97 in 10.0 mi NW 4.6 mph - N/A   Light Drizzle
12:55 AM 41.0 °F - 37.4 °F 87% 29.96 in 10.0 mi Calm Calm - N/A Rain Rain
1:15 AM 41.0 °F - 37.4 °F 87% 29.93 in 10.0 mi Calm Calm - N/A   Mostly Cloudy
1:35 AM 41.0 °F - 37.4 °F 87% 29.95 in 10.0 mi Calm Calm - N/A   Mostly Cloudy
1:55 AM 41.0 °F - 37.4 °F 87% 29.94 in 10.0 mi Calm Calm - N/A   Overcast
2:15 AM 41.0 °F - 39.2 °F 93% 29.91 in 10.0 mi Calm Calm - N/A Rain Light Rain
2:35 AM 41.0 °F - 39.2 °F 93% 29.90 in 10.0 mi Calm Calm - N/A   Light Drizzle
2:55 AM 41.0 °F - 39.2 °F 93% 29.90 in 10.0 mi Calm Calm - N/A Rain Rain
3:15 AM 41.0 °F - 39.2 °F 93% 29.89 in 10.0 mi Calm Calm - N/A   Drizzle
3:35 AM 41.0 °F - 39.2 °F 93% 29.87 in 10.0 mi Calm Calm - 0.01 in Rain Light Rain
3:55 AM 41.0 °F - 41.0 °F 100% 29.87 in 7.0 mi Calm Calm - 0.03 in Rain Light Rain
4:15 AM 41.0 °F - 41.0 °F 100% 29.87 in 5.0 mi Calm Calm - 0.04 in Rain Rain
4:35 AM 39.2 °F 37.0 °F 39.2 °F 100% 29.87 in 7.0 mi SSW 3.5 mph - 0.06 in Rain Rain
4:55 AM 39.2 °F - 39.2 °F 100% 29.87 in 5.0 mi Calm Calm - 0.08 in Rain Light Rain
5:15 AM 39.2 °F - 39.2 °F 100% 29.86 in 5.0 mi Calm Calm - 0.01 in   Drizzle
5:35 AM 39.2 °F - 39.2 °F 100% 29.87 in 5.0 mi Calm Calm - 0.02 in   Drizzle
5:55 AM 39.2 °F - 39.2 °F 100% 29.86 in 4.0 mi Calm Calm - 0.02 in   Drizzle
6:15 AM 39.2 °F - 39.2 °F 100% 29.84 in 3.0 mi Calm Calm - 0.02 in   Drizzle
6:35 AM 39.2 °F - 39.2 °F 100% 29.84 in 4.0 mi Calm Calm - 0.02 in   Light Drizzle
6:55 AM 39.2 °F - 39.2 °F 100% 29.85 in 2.5 mi Calm Calm - 0.03 in Rain Light Rain
7:15 AM 39.2 °F - 39.2 °F 100% 29.84 in 3.0 mi Calm Calm - 0.01 in Rain Rain
7:35 AM 39.2 °F - 39.2 °F 100% 29.83 in 4.0 mi Calm Calm - 0.01 in   Overcast
7:55 AM 39.2 °F - 39.2 °F 100% 29.84 in 7.0 mi Calm Calm - 0.02 in   Overcast
8:15 AM 39.2 °F - 39.2 °F 100% 29.85 in 3.0 mi Calm Calm - N/A   Overcast
8:35 AM 39.2 °F - 39.2 °F 100% 29.84 in 2.5 mi Calm Calm - N/A   Overcast
8:55 AM 39.2 °F - 39.2 °F 100% 29.84 in 1.2 mi Calm Calm - N/A   Light Drizzle
9:15 AM 39.2 °F - 39.2 °F 100% 29.82 in 2.0 mi Calm Calm - N/A   Overcast
9:35 AM 39.2 °F - 39.2 °F 100% 29.83 in 2.0 mi Calm Calm - N/A   Overcast
9:55 AM 41.0 °F - 41.0 °F 100% 29.80 in 2.0 mi Calm Calm - N/A   Overcast
10:15 AM 41.0 °F - 41.0 °F 100% 29.83 in 2.5 mi Calm Calm - N/A   Overcast
10:35 AM 41.0 °F - 41.0 °F 100% 29.81 in 2.5 mi Calm Calm - N/A   Overcast
10:55 AM 41.0 °F - 41.0 °F 100% 29.82 in 1.8 mi Calm Calm - N/A   Light Drizzle
11:15 AM 41.0 °F - 41.0 °F 100% 29.79 in 3.0 mi Calm Calm - N/A   Overcast
11:35 AM 41.0 °F - 41.0 °F 100% 29.78 in 5.0 mi Calm Calm - N/A   Overcast
11:55 AM 41.0 °F - 41.0 °F 100% 29.76 in 10.0 mi Calm Calm - N/A   Overcast
12:15 PM 41.0 °F - 41.0 °F 100% 29.75 in 10.0 mi Calm Calm - N/A   Overcast
12:35 PM 41.0 °F - 41.0 °F 100% 29.73 in 4.0 mi Calm Calm - N/A   Overcast
12:55 PM 41.0 °F - 41.0 °F 100% 29.72 in 5.0 mi Calm Calm - N/A   Overcast
1:15 PM 41.0 °F - 41.0 °F 100% 29.71 in 3.0 mi Calm Calm - N/A   Overcast
1:35 PM 41.0 °F - 41.0 °F 100% 29.70 in 5.0 mi Calm Calm - N/A   Overcast
1:55 PM 42.8 °F - 41.0 °F 93% 29.68 in 7.0 mi Calm Calm - N/A   Overcast
2:15 PM 42.8 °F 40.1 °F 41.0 °F 93% 29.69 in 7.0 mi SW 4.6 mph - N/A   Overcast
2:35 PM 42.8 °F 41.1 °F 41.0 °F 93% 29.69 in 10.0 mi WSW 3.5 mph - N/A   Overcast
2:55 PM 42.8 °F 40.1 °F 41.0 °F 93% 29.69 in 5.0 mi WSW 4.6 mph - N/A   Overcast
3:15 PM 42.8 °F 40.1 °F 41.0 °F 93% 29.70 in 4.0 mi WSW 4.6 mph - N/A   Drizzle
3:35 PM 42.8 °F 41.1 °F 42.8 °F 100% 29.70 in 4.0 mi WSW 3.5 mph - 0.01 in   Light Drizzle
3:55 PM 42.8 °F 38.6 °F 42.8 °F 100% 29.69 in 10.0 mi SSW 6.9 mph - 0.02 in Rain Light Rain
4:15 PM 44.6 °F 42.2 °F 42.8 °F 93% 29.68 in 10.0 mi SSW 4.6 mph - N/A   Overcast
4:35 PM 42.8 °F 38.0 °F 42.8 °F 100% 29.69 in 10.0 mi SW 8.1 mph - N/A   Overcast
4:55 PM 42.8 °F 38.0 °F 42.8 °F 100% 29.70 in 10.0 mi SW 8.1 mph - N/A   Overcast
5:15 PM 42.8 °F 38.6 °F 41.0 °F 93% 29.71 in 10.0 mi WSW 6.9 mph - N/A   Overcast
5:35 PM 42.8 °F 40.1 °F 41.0 °F 93% 29.71 in 10.0 mi WSW 4.6 mph - N/A   Overcast
5:55 PM 42.8 °F 41.1 °F 41.0 °F 93% 29.72 in 10.0 mi West 3.5 mph - N/A   Overcast
6:15 PM 42.8 °F 40.1 °F 41.0 °F 93% 29.74 in 10.0 mi NW 4.6 mph - N/A   Overcast
6:35 PM 42.8 °F 39.3 °F 41.0 °F 93% 29.75 in 10.0 mi NW 5.8 mph - N/A   Overcast
6:55 PM 42.8 °F 37.5 °F 37.4 °F 81% 29.77 in 10.0 mi WNW 9.2 mph 19.6 mph N/A   Scattered Clouds
7:15 PM 41.0 °F 38.0 °F 35.6 °F 81% 29.80 in 10.0 mi NW 4.6 mph - N/A   Clear
7:35 PM 41.0 °F 38.0 °F 33.8 °F 76% 29.81 in 10.0 mi WNW 4.6 mph - N/A   Clear
7:55 PM 41.0 °F 38.0 °F 33.8 °F 76% 29.83 in 10.0 mi WNW 4.6 mph - N/A   Clear
8:15 PM 39.2 °F 34.2 °F 32.0 °F 75% 29.83 in 10.0 mi NNW 6.9 mph - N/A   Clear
8:35 PM 39.2 °F 35.9 °F 32.0 °F 75% 29.83 in 10.0 mi NNE 4.6 mph - N/A   Scattered Clouds
8:55 PM 37.4 °F 34.9 °F 32.0 °F 81% 29.84 in 10.0 mi West 3.5 mph - N/A   Scattered Clouds
9:15 PM 37.4 °F 33.8 °F 32.0 °F 81% 29.85 in 10.0 mi NW 4.6 mph - N/A   Scattered Clouds
9:35 PM 39.2 °F 34.2 °F 32.0 °F 75% 29.85 in 10.0 mi NW 6.9 mph - N/A   Mostly Cloudy
9:55 PM 37.4 °F - 30.2 °F 75% 29.86 in 10.0 mi Calm Calm - N/A   Scattered Clouds
10:15 PM 37.4 °F 30.3 °F 30.2 °F 75% 29.86 in 10.0 mi NW 10.4 mph 16.1 mph N/A   Scattered Clouds
10:35 PM 37.4 °F 32.1 °F 30.2 °F 75% 29.87 in 10.0 mi NW 6.9 mph - N/A   Scattered Clouds
10:55 PM 37.4 °F - 30.2 °F 75% 29.87 in 10.0 mi Calm Calm - N/A   Scattered Clouds
11:15 PM 37.4 °F 33.8 °F 30.2 °F 75% 29.88 in 10.0 mi WNW 4.6 mph - N/A   Mostly Cloudy
11:35 PM 37.4 °F 33.8 °F 30.2 °F 75% 29.88 in 10.0 mi NW 4.6 mph - N/A   Mostly Cloudy
11:55 PM 37.4 °F 32.8 °F 30.2 °F 75% 29.89 in 10.0 mi NW 5.8 mph - N/A   Mostly Cloudy